loading
DOY 175 | 2024-06-23T11:13:05Z
Showing default

COSMOS 2553, 51511

Orbit data source: Space-Track

COSMOS 2553, 51511 is a payload satellite owned by VVKO VKS (CIS) in LEO that was launched on Sat, 05 Feb 2022 UTC via a Soyuz-2-1A launch vehicle from the Plesetsk Missile And Space Complex (PKMTR). Payloads include a variety of satellites, spacecraft, and rockets equipped with specific instruments for various scientific and technological missions. These include communications satellites like Starlink; space stations such as the ISS; scientific satellites like the Hubble; Earth observation satellites from companies like Planet Labs, Umbra, and HawkEye 360; GPS; miniature CubeSats for education and research; and military/defense satellites.

Loading next visibility...
Loading greatness...
COSMOS 2553 details
NORAD ID51511
COSPAR ID
2022-011A
Orbit
LEO
Last TLE update15 hours ago
Origin
Flag of CISVVKO VKS (CIS)
ManufacturerResehetnev ISS
BusMeridian
MotorUnknown
Mass~2,000 kg wet, ~2,000 kg dry
Launch date (UTC)
2022-02-05 (2 years ago)
Launch vehicle
Soyuz-2-1A
Launch site
Plesetsk Missile And Space Complex (PKMTR)
Object type
Payload
Rocket body
Debris
Radar Cross SectionLarge (>1 m²)
Predictive object data (real-time)
Latitude-47.80089°
Longitude119.78586°
Altitude2,011.3 km
Speed6.895 km/s
Apparent Right ascension01h 10m 17s
Apparent Declination-84° 40' 27"
Sunlit
Object is in daylight
Predictive observer data (real-time)
Local Sidereal Time22:21:05
Azimuth175.578° S
Elevation-35.891°
Doppler factor1
Orbital elements
Apogee1,998.053 km
Perigee1,991.373 km
Semi-major axis8,372.85 km
Eccentricity0.0003989
Inclination67.0942°
RAAN10.3632°
Arg. of periapsis264.6145°
True anomaly95.4797°
Mean anomaly95.4342°
Mean motion2.83291 °/min
BSTAR-0.00029684
Period127.08 mins
Definitive object data (Epoch: 2024-06-22T20:42:04.242Z)
Latitude-0.00008°
Longitude148.3257°
Altitude1,998.29 km
Speed6.9 km/s
True Right ascension00h 41m 27s
True Declination0° 00' 00"
Sunlit
Object was in daylight at TLE epoch
TLE from 15 hours ago
0 COSMOS 2553
1 51511U 22011A   24174.86254910 -.00000046  00000-0 -29684-3 0  9996
2 51511  67.0942  10.3632 0003989 264.6145  95.4342 11.32873967 98398
Epoch: 2024-06-22T20:42Z
No data available
Other satellites on launch #11 in the year 2022 (2022-02-05 UTC)

COSMOS 2553 Visibility forecast

Observer location: 39.9160978°, -105.1181434, 0m alt.

COSMOS 2553 is not visible in the next 10 days
Span
Click to sort rows by Start time (UTC) header in descending order
Start Az.
Max El. time (UTC)
Max El. Az.
Max El.
End time (UTC)
End Az.